Clayton Lake, ME

2:46 PM EST on November 24, 2017 (GMT -0500)
Clayton Lake

Weather History for K40B - January, 2013

Change the Weather History Date:

Tuesday, January 22, 2013

  Actual Average Record
Temperature  
Mean Temperature -12 °F -  
Max Temperature 4 °F 16 °F 30 °F (2002)
Min Temperature -29 °F -7 °F -99 °F (2000)
Degree Days  
Heating Degree Days 78    
Moisture  
Dew Point -19 °F    
Average Humidity 71    
Maximum Humidity 82    
Minimum Humidity 49    
Precipitation  
Precipitation 0.09 in - - ()
Sea Level Pressure  
Sea Level Pressure 29.95 in    
Wind  
Wind Speed 1 mph (North)    
Max Wind Speed 6 mph    
Max Gust Speed 13 mph    
Averages and records for this station are not official NWS values.
T = Trace of Precipitation, MM = Missing Value Source: NWS Daily Summary

Daily Weather History Graph

Daily Weather History Graph

Search for Another Location

Airport or City:

Trip Planner

Search our weather history database for the weather conditions in past years. The results will help you decide how hot, cold, wet, or windy it might be!

Date:

Astronomy

Jan. 22, 2013 Rise Set
Actual Time 7:12 AM EST 4:27 PM EST
Civil Twilight 6:39 AM EST 5:00 PM EST
Nautical Twilight 6:02 AM EST 5:37 PM EST
Astronomical Twilight 5:26 AM EST 6:13 PM EST
Moon 12:45 PM EST (1/22) 3:33 AM EST (1/22)
Length of Visible Light 10h 21m
Length of Day
9h 14m
Waxing Gibbous, 82% of the Moon is Illuminated
Jan 22
Waxing Gibbous
Jan 26
Full
Feb 3
Last Quarter
Feb 10
New
Feb 17
First Quarter

Hourly Weather History & Observations

Time (EST) Temp. Windchill Dew Point Humidity Pressure Visibility Wind Dir Wind Speed Gust Speed Precip Events Conditions
12:25 AM -13.7 °F - -18.2 °F 80% 29.98 in - Calm Calm - N/A   Unknown
1:25 AM -17.1 °F - -21.5 °F 81% 29.97 in - Calm Calm - N/A   Unknown
2:25 AM -19.8 °F - -24.7 °F 78% 29.94 in - Calm Calm - N/A   Unknown
3:25 AM -24.9 °F - -30.6 °F 74% 29.94 in - Calm Calm - N/A   Unknown
4:25 AM -25.4 °F - -31.4 °F 74% 29.96 in - Calm Calm - N/A   Unknown
5:25 AM -26.0 °F - -31.5 °F 75% 29.98 in - Calm Calm - N/A   Unknown
6:25 AM -27.9 °F - -33.9 °F 73% 29.99 in - Calm Calm - 0.00 in   Unknown
7:25 AM -29.7 °F - -36.0 °F 72% 30.01 in - Calm Calm - N/A   Unknown
8:26 AM -25.8 °F - -32.1 °F 72% 30.01 in - Calm Calm - 0.00 in   Unknown
9:25 AM -17.7 °F - -23.4 °F 75% 30.01 in - Calm Calm - 0.04 in   Unknown
10:25 AM -6.3 °F -15.1 °F -14.4 °F 68% 29.99 in - Variable 3.5 mph - 0.01 in   Unknown
11:26 AM -1.7 °F -13.5 °F -12.5 °F 60% 29.94 in - Variable 5.8 mph - N/A   Unknown
12:27 PM 0.5 °F -9.3 °F -11.9 °F 56% 29.92 in - Variable 4.6 mph - N/A   Unknown
1:25 PM 1.8 °F -9.5 °F -13.0 °F 50% 29.91 in - Variable 5.8 mph - N/A   Unknown
2:25 PM 4.1 °F - -11.2 °F 49% 29.91 in - Variable 2.3 mph - N/A   Unknown
3:25 PM 2.5 °F -5.0 °F -10.7 °F 54% 29.92 in - Variable 3.5 mph - N/A   Unknown
4:25 PM 0.3 °F - -7.4 °F 70% 29.92 in - Calm Calm - 0.01 in   Unknown
5:25 PM -4.9 °F - -9.0 °F 82% 29.93 in - Calm Calm - N/A   Unknown
6:25 PM -8.7 °F - -12.8 °F 82% 29.94 in - Calm Calm - N/A   Unknown
7:25 PM -11.4 °F - -16.1 °F 80% 29.95 in - Calm Calm - N/A   Unknown
8:25 PM -7.4 °F -16.3 °F -11.9 °F 81% 29.94 in - Variable 3.5 mph - 0.00 in   Unknown
9:25 PM -7.2 °F -18.3 °F -12.6 °F 77% 29.93 in - Variable 4.6 mph - 0.01 in   Unknown
10:25 PM -6.7 °F -19.5 °F -12.8 °F 75% 29.93 in - Variable 5.8 mph 12.7 mph 0.01 in   Unknown
11:25 PM -8.1 °F -17.1 °F -14.3 °F 75% 29.93 in - Variable 3.5 mph - 0.01 in   Unknown